Location: High Cliff State Park
(44.1557°N, 88.2948°W)
Time: 06:55:58
(UTC-05:00)

Amateur Radio Satellites - All Passes

Search period start: 31 May 2016 06:25
Search period end: 01 June 2016 06:25
Location: High Cliff State Park, 44.1557°N, 88.2948°W

Satellite Date Start Highest point End Downlink Frequencies (MHz)
Time Altitude Azimuth
CUBESAT XI-V 31 May 06:37:03 06:40:32 21° 268° (W) 06:44:04 437.345
Cubesat XI-IV 31 May 06:40:28 06:45:22 35° 97° (E) 06:50:14 437.490
GONETS M04 31 May 06:44:59 06:49:28 15° 54° (NE) 06:53:56
HORYU 2 31 May 07:09:54 07:12:46 17° 298° (WNW) 07:15:39 437.375
NOAA 18 31 May 07:10:42 07:16:12 74° 104° (ESE) 07:21:42 137.9125
Cosmos 2504 31 May 07:11:40 07:15:09 13° 287° (WNW) 07:18:42 435.465 / 435.565
SO-50 31 May 07:11:58 07:15:52 24° 40° (NE) 07:19:39 436.795
HO-68 31 May 07:23:23 07:26:13 12° 86° (E) 07:29:02 435.675
BRITE-PL 31 May 07:23:50 07:28:53 77° 285° (WNW) 07:33:30 437.365/2234.400
CUTE-I 31 May 07:25:10 07:30:34 85° 103° (ESE) 07:35:57 437.470
GOMX 1 31 May 07:28:10 07:32:41 55° 99° (E) 07:36:55 467.674
AO-85 31 May 07:30:29 07:34:25 20° 324° (NW) 07:38:15 145.980
AIST 1 31 May 07:40:56 07:45:07 43° 77° (ENE) 07:49:13
Cosmos 2499 31 May 07:45:14 07:51:40 22° 62° (ENE) 07:58:12 435.465 / 435.565
LilacSat-2 31 May 07:47:19 07:50:54 42° 288° (WNW) 07:54:29 437.200
STRAND 1 31 May 07:52:36 07:57:26 42° 262° (W) 08:02:18 437.568
DOVE 4 31 May 07:56:53 08:01:06 50° 99° (E) 08:05:09 437.250
CINEMA 3 31 May 07:59:09 08:01:38 15° 91° (E) 08:04:08 145.822/145.860
NOAA 15 31 May 08:01:18 08:06:03 34° 294° (WNW) 08:10:46 137.62
PRISM 31 May 08:03:04 08:07:05 49° 72° (ENE) 08:11:09 437.425
M-CUBED/EXP-1 PRIME 31 May 08:11:35 08:12:50 12° 98° (E) 08:14:04 437.505
AO-7 31 May 08:12:09 08:13:44 11° 324° (NW) 08:15:18 29.400- 29.500
SEEDS 31 May 08:19:33 08:22:34 19° 92° (E) 08:25:34 437.485
Cubesat XI-IV 31 May 08:20:36 08:25:23 34° 294° (WNW) 08:30:10 437.490
CANX-2 31 May 08:24:24 08:28:17 32° 96° (E) 08:32:10 2200.000
PCSat 31 May 08:29:26 08:34:05 30° 110° (ESE) 08:38:46 145.827
GONETS M04 31 May 08:39:35 08:48:16 67° 78° (ENE) 08:56:54
CUTE 1.7 + AOD 2 31 May 08:50:38 08:54:52 55° 100° (E) 08:59:03 437.475
SO-50 31 May 08:52:04 08:56:41 55° 240° (WSW) 09:01:07 436.795
NOAA 18 31 May 08:52:39 08:56:16 18° 302° (WNW) 08:59:53 137.9125
AAUSAT CUBESAT 2 31 May 08:56:09 08:59:42 26° 95° (E) 09:03:14 437.432
COMPASS 1 31 May 08:57:28 09:01:20 33° 97° (E) 09:05:10 437.405
O/OREOS (USA 219) 31 May 08:59:33 09:04:02 63° 110° (ESE) 09:08:32 437.305
BRITE-PL 31 May 09:05:19 09:06:21 11° 305° (NW) 09:07:22 437.365/2234.400
CUTE-I 31 May 09:06:55 09:09:54 15° 303° (WNW) 09:12:53 437.470
GOMX 1 31 May 09:07:26 09:10:17 16° 299° (WNW) 09:13:03 467.674
HO-68 31 May 09:07:56 09:15:08 72° 104° (ESE) 09:22:18 435.675
Oscar 11 31 May 09:11:56 09:14:44 17° 91° (E) 09:17:31 145.826/435.025
AIST 1 31 May 09:19:33 09:22:20 17° 275° (W) 09:25:05
ANTELSAT 31 May 09:22:16 09:25:26 20° 65° (ENE) 09:28:34 437.575/2403.000
ZACube-1 31 May 09:33:34 09:37:03 24° 95° (E) 09:40:35 437.345
AUBIESAT-1 31 May 09:33:59 09:37:17 68° 292° (WNW) 09:40:36 437.475
CINEMA 3 31 May 09:35:06 09:39:05 46° 288° (WNW) 09:43:03 145.822/145.860
DOVE 4 31 May 09:35:43 09:38:24 16° 298° (WNW) 09:41:00 437.250
Cosmos 2499 31 May 09:37:13 09:45:57 90° 279° (W) 09:54:52 435.465 / 435.565
PRISM 31 May 09:40:13 09:42:41 15° 268° (W) 09:45:09 437.425
M-CUBED/EXP-1 PRIME 31 May 09:44:34 09:47:39 38° 293° (WNW) 09:50:43 437.505
CUSAT 1 31 May 09:54:21 09:58:16 16° 76° (ENE) 10:02:27 437.405
SEEDS 31 May 09:54:26 09:58:27 41° 289° (WNW) 10:02:27 437.485
CUBEBUG 2 31 May 09:56:39 10:00:50 86° 288° (WNW) 10:05:06 437.445
CANX-2 31 May 10:00:31 10:04:00 25° 293° (WNW) 10:07:30 2200.000
BEESAT 3 31 May 10:05:42 10:08:47 22° 114° (ESE) 10:11:52 437.485
DUCHIFAT 1 31 May 10:07:04 10:07:45 10° 59° (ENE) 10:08:25 145.980
FUNcube-1 31 May 10:08:53 10:13:02 55° 100° (E) 10:17:15 145.935
PCSat 31 May 10:12:07 10:17:18 44° 308° (NW) 10:22:30 145.827
UNISAT 6 31 May 10:16:24 10:20:43 73° 75° (ENE) 10:25:00 437.425
UWE-3 31 May 10:16:29 10:20:41 76° 285° (WNW) 10:24:57 435.000/436.395/437.385
TIGRISAT 31 May 10:22:30 10:26:50 80° 75° (ENE) 10:31:06 435.000
DELFI C3 31 May 10:26:51 10:30:47 49° 99° (E) 10:34:42 145.870
CUTE 1.7 + AOD 2 31 May 10:27:42 10:30:16 16° 297° (WNW) 10:32:51 437.475
DANDE 31 May 10:27:42 10:29:55 12° 72° (ENE) 10:32:15 436.750
AAUSAT CUBESAT 2 31 May 10:31:32 10:35:10 29° 291° (WNW) 10:38:46 437.432
COMPASS 1 31 May 10:33:22 10:36:43 23° 293° (WNW) 10:40:04 437.405
GONETS M04 31 May 10:37:24 10:44:22 28° 279° (W) 10:51:19
O/OREOS (USA 219) 31 May 10:40:54 10:43:53 17° 309° (NW) 10:46:52 437.305
HUMSAT D 31 May 10:41:24 10:45:11 32° 96° (E) 10:49:00 437.325/437.525
QB50P1 31 May 10:46:41 10:50:21 29° 68° (ENE) 10:54:00 145.935-145.965
POPSAT HIP 1 31 May 10:46:43 10:50:22 29° 68° (ENE) 10:54:00 437.405
Oscar 11 31 May 10:46:56 10:51:08 48° 288° (WNW) 10:55:19 145.826/435.025
QB50P2 31 May 10:50:20 10:54:07 33° 69° (ENE) 10:57:56 145.880/145.840
POLYITAN 1 31 May 10:52:48 10:56:37 34° 69° (ENE) 11:00:26 437.675
HO-68 31 May 10:56:35 11:02:13 26° 304° (WNW) 11:07:50 435.675
ANTELSAT 31 May 10:57:50 11:01:54 40° 262° (W) 11:05:57 437.575/2403.000
NANOSAT C BR1 31 May 11:02:20 11:06:17 40° 71° (ENE) 11:10:14 145.865
ZACube-1 31 May 11:09:39 11:13:22 31° 291° (WNW) 11:17:08 437.345
BEESAT 2 31 May 11:15:42 11:19:40 71° 121° (ESE) 11:23:39 435.950
CUBEBUG 1 31 May 11:17:48 11:18:09 10° 88° (E) 11:18:30 437.445
JAS-2 31 May 11:28:57 11:35:15 29° 59° (ENE) 11:41:42 435.910
ESTCUBE 1 31 May 11:29:00 11:32:29 21° 93° (E) 11:35:57 437.505/2401.250
CUSAT 1 31 May 11:32:04 11:38:52 77° 97° (E) 11:46:53 437.405
Cosmos 2499 31 May 11:32:05 11:37:56 20° 282° (WNW) 11:43:53 435.465 / 435.565
VELOX 1 31 May 11:33:55 11:36:33 15° 91° (E) 11:39:10 145.980
50 SAT 31 May 11:37:05 11:39:33 17° 93° (E) 11:41:59 437.505
DUCHIFAT 1 31 May 11:38:34 11:42:47 86° 260° (W) 11:47:00 145.980
BUGSAT 1 31 May 11:39:18 11:43:18 46° 72° (ENE) 11:47:17 437.445
BEESAT 3 31 May 11:42:35 11:46:16 37° 311° (NW) 11:49:59 437.485
FUNcube-1 31 May 11:46:28 11:48:52 15° 297° (WNW) 11:51:19 145.935
UKube-1 31 May 11:55:10 11:58:01 17° 92° (E) 12:00:51 .
UNISAT 6 31 May 11:57:01 11:57:56 11° 271° (W) 11:58:51 437.425
PCSat 31 May 12:00:26 12:02:10 11° 331° (NNW) 12:03:55 145.827
DELFI C3 31 May 12:02:52 12:05:16 15° 296° (WNW) 12:07:39 145.870
DANDE 31 May 12:04:54 12:10:52 68° 95° (E) 12:18:30 436.750
AISAT 31 May 12:09:27 12:13:35 37° 98° (E) 12:17:39 437.250
HUMSAT D 31 May 12:17:21 12:20:40 23° 293° (WNW) 12:24:01 437.325/437.525
QB50P1 31 May 12:22:32 12:26:06 26° 265° (W) 12:29:40 145.935-145.965
POPSAT HIP 1 31 May 12:22:32 12:26:07 26° 265° (W) 12:29:42 437.405
AIST 2 31 May 12:23:11 12:26:30 24° 114° (ESE) 12:29:50 435.215
QB50P2 31 May 12:26:38 12:29:59 23° 266° (W) 12:33:22 145.880/145.840
POLYITAN 1 31 May 12:29:11 12:32:30 22° 266° (W) 12:35:49 437.675
Oscar 19 31 May 12:32:32 12:37:00 30° 65° (ENE) 12:41:30 437.125/150
AO-85 31 May 12:39:00 12:42:40 21° 37° (NE) 12:46:06 145.980
NANOSAT C BR1 31 May 12:39:12 12:42:11 19° 267° (W) 12:45:10 145.865
DX 1 31 May 12:48:47 12:53:10 78° 105° (ESE) 12:57:30 434.975-435.025
CUBEBUG 1 31 May 12:50:37 12:55:00 79° 287° (WNW) 12:59:20 437.445
BEESAT 2 31 May 12:55:23 12:57:57 16° 321° (NW) 13:00:33 435.950
SPROUT 31 May 12:58:04 13:02:13 49° 99° (E) 13:06:20 437.525
ESTCUBE 1 31 May 13:05:11 13:09:27 41° 290° (WNW) 13:13:41 437.505/2401.250
TISAT 1 31 May 13:07:21 13:10:08 17° 92° (E) 13:12:54 437.305
VELOX 1 31 May 13:09:02 13:13:22 54° 288° (WNW) 13:17:38 145.980
50 SAT 31 May 13:09:58 13:13:24 35° 289° (WNW) 13:16:49 437.505
JAS-2 31 May 13:12:02 13:19:33 72° 258° (WSW) 13:27:29 435.910
CUSAT 1 31 May 13:16:11 13:21:57 25° 299° (WNW) 13:28:19 437.405
BUGSAT 1 31 May 13:16:16 13:18:55 16° 268° (W) 13:21:33 437.445
ITAMSAT 1 31 May 13:25:00 13:28:13 17° 59° (ENE) 13:31:26 435.822/435.867
Gurwin Techsat 1B 31 May 13:28:54 13:33:52 42° 68° (ENE) 13:38:50 435.225
UKube-1 31 May 13:30:10 13:34:19 46° 289° (WNW) 13:38:26 .
AO-7 31 May 13:34:01 13:39:38 21° 47° (NE) 13:45:17 29.400- 29.500
AISAT 31 May 13:46:24 13:49:50 23° 295° (WNW) 13:53:16 437.250
DANDE 31 May 13:49:21 13:54:37 26° 300° (WNW) 14:00:49 436.750
Cosmos 2491 31 May 13:55:06 14:02:50 33° 67° (ENE) 14:10:27 435.465 / 435.565
AIST 2 31 May 14:00:56 14:04:48 38° 312° (NW) 14:08:42 435.215
YUBILEINY 31 May 14:02:23 14:04:39 11° 71° (ENE) 14:06:56 435.215
Oscar 19 31 May 14:11:25 14:16:12 37° 263° (W) 14:21:02 437.125/150
SWISSCUBE 31 May 14:15:16 14:18:53 21° 93° (E) 14:22:29 437.505
AO-85 31 May 14:19:00 14:23:40 66° 239° (WSW) 14:27:53 145.980
ITUPSAT 1 31 May 14:23:42 14:27:29 22° 94° (E) 14:31:13 437.325
DX 1 31 May 14:27:04 14:28:44 12° 301° (WNW) 14:30:24 434.975-435.025
SPROUT 31 May 14:35:03 14:37:47 17° 297° (WNW) 14:40:31 437.525
TISAT 1 31 May 14:42:03 14:46:01 43° 289° (WNW) 14:49:56 437.305
BEESAT 31 May 14:43:54 14:48:18 35° 97° (E) 14:52:41 436.000
ITAMSAT 1 31 May 15:01:56 15:07:05 73° 256° (WSW) 15:12:18 435.822/435.867
JAS-2 31 May 15:02:06 15:05:53 14° 278° (W) 15:09:45 435.910
Gurwin Techsat 1B 31 May 15:09:29 15:13:56 27° 266° (W) 15:18:26 435.225
AO-7 31 May 15:22:53 15:31:09 78° 69° (ENE) 15:39:29 29.400- 29.500
YUBILEINY 31 May 15:51:01 15:59:30 62° 92° (E) 16:08:03 435.215
Cosmos 2491 31 May 15:51:38 16:00:09 59° 269° (W) 16:08:37 435.465 / 435.565
SWISSCUBE 31 May 15:52:19 15:56:55 46° 290° (WNW) 16:01:29 437.505
ITUPSAT 1 31 May 16:00:55 16:05:29 43° 290° (WNW) 16:10:01 437.325
Cosmos 2504 31 May 16:05:10 16:10:04 19° 78° (ENE) 16:15:09 435.465 / 435.565
KKS-1 31 May 16:05:56 16:09:52 30° 96° (E) 16:13:47 437.445
BEESAT 31 May 16:21:55 16:25:58 28° 294° (WNW) 16:30:00 436.000
Cubesat XI-IV 31 May 16:29:23 16:30:05 10° 53° (NE) 16:30:47 437.490
STARS 31 May 16:29:41 16:33:27 28° 96° (E) 16:37:12 437.465
RS-15 31 May 16:30:29 16:41:15 53° 112° (ESE) 16:52:36 29.354- 29.394
HORYU 2 31 May 16:31:32 16:35:52 60° 73° (ENE) 16:40:13 437.375
MOZHAYETS 4 31 May 16:52:56 16:57:36 76° 103° (ESE) 17:02:14
BRITE-PL 31 May 16:58:04 17:02:18 22° 63° (ENE) 17:06:29 437.365/2234.400
NOAA 18 31 May 16:59:41 17:03:58 24° 61° (ENE) 17:08:16 137.9125
GOMX 1 31 May 17:02:50 17:04:33 11° 58° (ENE) 17:06:15 467.674
CUTE-I 31 May 17:10:12 17:14:19 24° 62° (ENE) 17:18:28 437.470
PCSat 31 May 17:15:04 17:20:05 36° 49° (NE) 17:25:03 145.827
AO-7 31 May 17:18:20 17:24:43 24° 268° (W) 17:31:11 29.400- 29.500
O/OREOS (USA 219) 31 May 17:29:34 17:32:49 19° 52° (NE) 17:36:02 437.305
KKS-1 31 May 17:42:36 17:46:21 27° 293° (WNW) 17:50:06 437.445
NOAA 15 31 May 17:42:51 17:48:05 62° 71° (ENE) 17:53:20 137.62
YUBILEINY 31 May 17:49:24 17:56:53 31° 293° (WNW) 18:04:26 435.215
Cosmos 2491 31 May 17:53:36 17:54:57 10° 290° (WNW) 17:56:18 435.465 / 435.565
HO-68 31 May 17:55:01 17:58:22 14° 48° (NE) 18:01:43 435.675
Cosmos 2504 31 May 17:55:04 18:02:21 80° 279° (W) 18:10:12 435.465 / 435.565
BEESAT 2 31 May 17:56:19 17:57:47 12° 34° (NE) 17:59:15 435.950
Cubesat XI-IV 31 May 18:03:53 18:09:08 66° 72° (ENE) 18:14:25 437.490
STARS 31 May 18:06:00 18:09:47 29° 293° (WNW) 18:13:32 437.465
HORYU 2 31 May 18:10:31 18:12:49 14° 269° (W) 18:15:07 437.375
BEESAT 3 31 May 18:20:57 18:24:16 25° 44° (NE) 18:27:34 437.485
LilacSat-2 31 May 18:30:16 18:34:02 71° 259° (WSW) 18:37:50 437.200
CUBESAT XI-V 31 May 18:30:27 18:35:13 90° 296° (WNW) 18:39:54 437.345
MOZHAYETS 4 31 May 18:31:52 18:34:09 14° 300° (WNW) 18:36:26
BRITE-PL 31 May 18:34:38 18:40:16 64° 259° (W) 18:45:54 437.365/2234.400
GOMX 1 31 May 18:36:20 18:41:46 73° 75° (ENE) 18:47:02 467.674
NOAA 18 31 May 18:38:59 18:44:18 52° 260° (W) 18:49:37 137.9125
RS-15 31 May 18:42:30 18:53:44 56° 317° (NW) 19:05:37 29.354- 29.394
AUBIESAT-1 31 May 18:48:24 18:50:56 17° 61° (ENE) 18:53:23 437.475
CUTE-I 31 May 18:48:52 18:54:02 51° 260° (W) 18:59:14 437.470
M-CUBED/EXP-1 PRIME 31 May 18:58:19 19:01:38 26° 64° (ENE) 19:04:46 437.505
PCSat 31 May 18:58:30 19:03:29 38° 248° (WSW) 19:08:27 145.827
CINEMA 3 31 May 19:01:59 19:05:19 20° 65° (ENE) 19:08:33 145.822/145.860
DOVE 4 31 May 19:02:43 19:07:49 64° 74° (ENE) 19:12:40 437.250
O/OREOS (USA 219) 31 May 19:08:11 19:12:32 51° 251° (WSW) 19:16:52 437.305
SEEDS 31 May 19:13:18 19:15:56 16° 64° (ENE) 19:18:36 437.485
CANX-2 31 May 19:18:45 19:22:20 28° 68° (ENE) 19:25:58 2200.000
ISS 31 May 19:18:51 19:20:54 16° 133° (SE) 19:22:57 145.825
NOAA 15 31 May 19:24:40 19:28:17 18° 269° (W) 19:31:54 137.62
BEESAT 2 31 May 19:32:24 19:36:24 68° 54° (NE) 19:40:21 435.950
HO-68 31 May 19:37:42 19:44:42 62° 68° (ENE) 19:51:45 435.675
UWE-3 31 May 19:42:03 19:43:06 11° 60° (ENE) 19:44:10 435.000/436.395/437.385
CUTE 1.7 + AOD 2 31 May 19:44:35 19:48:36 45° 72° (ENE) 19:52:40 437.475
Cubesat XI-IV 31 May 19:46:15 19:49:40 17° 270° (W) 19:53:07 437.490
AAUSAT CUBESAT 2 31 May 19:48:08 19:51:19 22° 66° (ENE) 19:54:31 437.432
COMPASS 1 31 May 19:49:47 19:53:19 28° 68° (ENE) 19:56:54 437.405
GONETS M04 31 May 19:51:22 19:55:30 14° 73° (ENE) 19:59:37
Cosmos 2504 31 May 19:52:58 19:57:17 16° 303° (WNW) 20:01:45 435.465 / 435.565
BEESAT 3 31 May 19:58:24 20:02:04 36° 243° (WSW) 20:05:41 437.485
STRAND 1 31 May 20:01:07 20:06:13 58° 101° (E) 20:11:17 437.568
PHONESAT 2.4 31 May 20:02:03 20:03:36 13° 153° (SSE) 20:05:08 2401.200-2431.200
Oscar 11 31 May 20:08:34 20:11:15 16° 63° (ENE) 20:13:57 145.826/435.025
CUBESAT XI-V 31 May 20:10:11 20:11:51 12° 302° (WNW) 20:13:31 437.345
AIST 1 31 May 20:12:10 20:15:43 25° 88° (E) 20:19:18
GOMX 1 31 May 20:16:59 20:20:17 16° 271° (W) 20:23:32 467.674
AUBIESAT-1 31 May 20:21:27 20:25:13 41° 255° (WSW) 20:28:45 437.475
CUSAT 1 31 May 20:26:27 20:30:09 14° 51° (NE) 20:33:34 437.405
Cosmos 2499 31 May 20:28:42 20:31:24 12° 72° (ENE) 20:34:11 435.465 / 435.565
ZACube-1 31 May 20:31:10 20:34:29 23° 67° (ENE) 20:37:48 437.345
M-CUBED/EXP-1 PRIME 31 May 20:32:44 20:36:09 26° 257° (WSW) 20:39:22 437.505
CINEMA 3 31 May 20:37:44 20:42:11 45° 261° (W) 20:46:29 145.822/145.860
AIST 2 31 May 20:42:28 20:46:05 28° 45° (NE) 20:49:41 435.215
DOVE 4 31 May 20:42:40 20:45:51 16° 269° (W) 20:48:58 437.250
SEEDS 31 May 20:47:12 20:51:16 49° 261° (W) 20:55:22 437.485
ISS 31 May 20:53:43 20:56:59 74° 330° (NNW) 21:00:15 145.825
CANX-2 31 May 20:54:34 20:58:09 27° 265° (W) 21:01:46 2200.000
CUBEBUG 2 31 May 20:55:58 21:00:18 88° 256° (WSW) 21:04:32 437.445
RS-15 31 May 20:59:49 21:09:43 29° 349° (N) 21:19:58 29.354- 29.394
DANDE 31 May 21:01:16 21:06:10 16° 53° (NE) 21:10:49 436.750
FUNcube-1 31 May 21:05:48 21:09:50 51° 73° (ENE) 21:13:52 145.935
BEESAT 2 31 May 21:12:08 21:13:42 12° 251° (WSW) 21:15:15 435.950
DELFI C3 31 May 21:14:14 21:17:50 34° 70° (ENE) 21:21:29 145.870
UWE-3 31 May 21:14:44 21:18:59 80° 259° (W) 21:23:11 435.000/436.395/437.385
PRISM 31 May 21:18:10 21:22:21 65° 102° (ESE) 21:26:28 437.425
CUTE 1.7 + AOD 2 31 May 21:22:00 21:24:42 16° 269° (W) 21:27:25 437.475
AAUSAT CUBESAT 2 31 May 21:22:51 21:26:37 34° 263° (W) 21:30:27 437.432
COMPASS 1 31 May 21:25:19 21:28:51 27° 265° (W) 21:32:24 437.405
HO-68 31 May 21:27:01 21:32:52 27° 267° (W) 21:38:46 435.675
HUMSAT D 31 May 21:34:22 21:37:49 27° 68° (ENE) 21:41:17 437.325/437.525
PHONESAT 2.4 31 May 21:36:55 21:39:48 33° 169° (S) 21:42:41 2401.200-2431.200
STRAND 1 31 May 21:41:14 21:44:57 21° 299° (WNW) 21:48:41 437.568
GONETS M04 31 May 21:41:56 21:50:40 73° 94° (E) 21:59:22
Oscar 11 31 May 21:42:47 21:46:58 52° 260° (W) 21:51:13 145.826/435.025
AIST 1 31 May 21:49:16 21:53:11 31° 286° (WNW) 21:57:07
CUSAT 1 31 May 22:06:35 22:14:08 65° 75° (ENE) 22:20:11 437.405
ZACube-1 31 May 22:06:53 22:10:39 32° 263° (W) 22:14:23 437.345
UNISAT 6 31 May 22:07:59 22:10:05 13° 90° (E) 22:12:12 437.425
TIGRISAT 31 May 22:13:39 22:16:02 14° 91° (E) 22:18:25 435.000
CUBEBUG 1 31 May 22:14:37 22:16:21 12° 60° (ENE) 22:18:05 437.445
Cosmos 2499 31 May 22:15:29 22:22:47 71° 94° (E) 22:30:43 435.465 / 435.565
50 SAT 31 May 22:18:47 22:19:28 10° 62° (ENE) 22:20:09 437.505
AIST 2 31 May 22:20:50 22:24:36 34° 244° (WSW) 22:28:22 435.215
ESTCUBE 1 31 May 22:29:59 22:33:37 24° 66° (ENE) 22:37:16 437.505/2401.250
ISS 31 May 22:31:04 22:33:49 24° 350° (N) 22:36:34 145.825
VELOX 1 31 May 22:32:42 22:35:44 18° 63° (ENE) 22:38:46 145.980
DANDE 31 May 22:42:28 22:50:52 66° 75° (ENE) 22:58:08 436.750
FUNcube-1 31 May 22:44:06 22:46:24 14° 269° (W) 22:48:41 145.935
ANTELSAT 31 May 22:47:33 22:51:30 34° 97° (E) 22:55:32 437.575/2403.000
DELFI C3 31 May 22:49:54 22:52:49 19° 267° (W) 22:55:45 145.870
UKube-1 31 May 22:51:16 22:54:18 19° 63° (ENE) 22:57:21 .
PRISM 31 May 22:55:10 22:57:08 13° 299° (WNW) 22:59:04 437.425
SO-50 31 May 23:07:19 23:11:44 35° 116° (ESE) 23:16:10 436.795
AISAT 31 May 23:08:02 23:12:13 41° 70° (ENE) 23:16:25 437.250
HUMSAT D 31 May 23:10:00 23:13:24 26° 265° (W) 23:16:51 437.325/437.525
PHONESAT 2.4 31 May 23:13:17 23:16:15 40° 186° (S) 23:19:13 2401.200-2431.200
RS-15 31 May 23:16:19 23:27:06 34° 24° (NNE) 23:38:01 29.354- 29.394
DUCHIFAT 1 31 May 23:22:49 23:24:51 13° 90° (E) 23:26:53 145.980
GONETS M04 31 May 23:41:11 23:48:19 27° 296° (WNW) 23:55:29
UNISAT 6 31 May 23:42:55 23:47:11 61° 286° (WNW) 23:51:31 437.425
DX 1 31 May 23:45:22 23:49:45 81° 75° (ENE) 23:54:10 434.975-435.025
CUBEBUG 1 31 May 23:47:33 23:52:00 80° 258° (WSW) 23:56:27 437.445
TIGRISAT 31 May 23:48:50 23:53:03 56° 287° (WNW) 23:57:21 435.000
50 SAT 31 May 23:49:03 23:52:40 63° 259° (W) 23:56:19 437.505
CUSAT 1 31 May 23:49:46 23:55:25 25° 279° (W) 00:00:17 437.405
SPROUT 31 May 23:52:52 23:56:58 45° 71° (ENE) 00:01:04 437.525
TISAT 1 01 Jun 00:00:48 00:03:33 17° 63° (ENE) 00:06:16 437.305
QB50P1 01 Jun 00:04:58 00:08:58 42° 99° (E) 00:12:58 145.935-145.965
POPSAT HIP 1 01 Jun 00:05:03 00:09:02 41° 99° (E) 00:13:00 437.405
ESTCUBE 1 01 Jun 00:06:04 00:10:14 37° 263° (W) 00:14:28 437.505/2401.250
VELOX 1 01 Jun 00:07:29 00:11:49 50° 260° (W) 00:16:12 145.980
ISS 01 Jun 00:08:15 00:10:59 24° 10° (N) 00:13:42 145.825
QB50P2 01 Jun 00:08:56 00:13:03 49° 100° (E) 00:17:08 145.880/145.840
Cosmos 2499 01 Jun 00:10:53 00:16:47 24° 297° (WNW) 00:23:03 435.465 / 435.565
POLYITAN 1 01 Jun 00:11:26 00:15:32 51° 100° (E) 00:19:38 437.675
NANOSAT C BR1 01 Jun 00:20:30 00:24:40 61° 101° (E) 00:28:48 145.865
JAS-2 01 Jun 00:22:40 00:27:22 18° 85° (E) 00:31:44 435.910
ANTELSAT 01 Jun 00:24:37 00:28:05 24° 294° (WNW) 00:31:35 437.575/2403.000
UKube-1 01 Jun 00:25:52 00:30:01 45° 260° (W) 00:34:13 .
DANDE 01 Jun 00:26:11 00:33:02 30° 277° (W) 00:39:11 436.750
AISAT 01 Jun 00:45:30 00:48:51 21° 267° (W) 00:52:14 437.250
SO-50 01 Jun 00:47:39 00:52:12 37° 314° (NW) 00:56:45 436.795
PHONESAT 2.4 01 Jun 00:50:13 00:52:34 19° 202° (SSW) 00:54:55 2401.200-2431.200
BUGSAT 1 01 Jun 00:54:43 00:58:44 63° 101° (ESE) 01:02:42 437.445
DUCHIFAT 1 01 Jun 00:56:49 01:00:54 56° 287° (WNW) 01:05:00 145.980
SWISSCUBE 01 Jun 01:23:04 01:27:07 29° 66° (ENE) 01:31:13 437.505
RS-15 01 Jun 01:29:35 01:41:58 77° 53° (NE) 01:54:18 29.354- 29.394
SPROUT 01 Jun 01:30:18 01:33:08 17° 268° (W) 01:36:00 437.525
ITUPSAT 1 01 Jun 01:31:47 01:35:57 31° 67° (ENE) 01:40:09 437.325
TISAT 1 01 Jun 01:34:45 01:38:50 48° 261° (W) 01:42:56 437.305
QB50P1 01 Jun 01:41:31 01:44:27 19° 296° (WNW) 01:47:23 145.935-145.965
POPSAT HIP 1 01 Jun 01:41:35 01:44:32 19° 295° (WNW) 01:47:30 437.405
ISS 01 Jun 01:44:34 01:47:50 69° 28° (NNE) 01:51:05 145.825
Gurwin Techsat 1B 01 Jun 01:44:56 01:47:43 14° 89° (E) 01:50:30 435.225
QB50P2 01 Jun 01:45:49 01:48:28 16° 297° (WNW) 01:51:07 145.880/145.840
POLYITAN 1 01 Jun 01:48:21 01:50:57 16° 297° (WNW) 01:53:33 437.675
BEESAT 01 Jun 01:51:35 01:56:08 48° 71° (ENE) 02:00:44 436.000
NANOSAT C BR1 01 Jun 01:57:46 01:59:54 14° 298° (WNW) 02:02:04 145.865
YUBILEINY 01 Jun 01:59:21 02:07:07 34° 68° (ENE) 02:14:52 435.215
JAS-2 01 Jun 02:06:02 02:13:27 84° 285° (WNW) 02:19:56 435.910
Oscar 19 01 Jun 02:20:51 02:26:01 69° 102° (ESE) 02:31:07 437.125/150
MOZHAYETS 4 01 Jun 02:23:22 02:24:11 10° 58° (ENE) 02:25:00
BUGSAT 1 01 Jun 02:31:54 02:33:36 12° 299° (WNW) 02:35:17 437.445
SO-50 01 Jun 02:33:18 02:34:06 10° 336° (NNW) 02:34:53 436.795
Cosmos 2491 01 Jun 02:58:37 03:06:19 35° 84° (E) 03:14:00 435.465 / 435.565
SWISSCUBE 01 Jun 03:00:32 03:04:50 33° 263° (W) 03:09:09 437.505
KKS-1 01 Jun 03:05:17 03:09:19 34° 68° (ENE) 03:13:21 437.445
ITUPSAT 1 01 Jun 03:09:32 03:13:44 31° 264° (W) 03:17:59 437.325
ITAMSAT 1 01 Jun 03:13:22 03:18:10 35° 97° (E) 03:22:55 435.822/435.867
ISS 01 Jun 03:21:45 03:23:57 17° 226° (SW) 03:26:07 145.825
Gurwin Techsat 1B 01 Jun 03:22:56 03:28:16 78° 287° (WNW) 03:33:35 435.225
AO-7 01 Jun 03:23:50 03:30:05 23° 91° (E) 03:36:16 29.400- 29.500
STARS 01 Jun 03:27:40 03:31:32 31° 68° (ENE) 03:35:24 437.465
BEESAT 01 Jun 03:30:46 03:34:11 20° 268° (W) 03:37:39 436.000
RS-15 01 Jun 03:43:00 03:53:27 35° 255° (WSW) 04:03:53 29.354- 29.394
Cosmos 2504 01 Jun 03:44:37 03:52:42 44° 73° (ENE) 04:01:03 435.465 / 435.565
JAS-2 01 Jun 03:52:30 03:57:15 19° 308° (NW) 04:01:44 435.910
YUBILEINY 01 Jun 03:55:51 04:04:23 59° 269° (W) 04:12:56 435.215
MOZHAYETS 4 01 Jun 03:56:01 04:00:34 84° 75° (ENE) 04:05:11
CUBESAT XI-V 01 Jun 04:00:38 04:02:50 13° 60° (ENE) 04:05:02 437.345
Oscar 19 01 Jun 04:01:28 04:04:46 17° 300° (WNW) 04:08:04 437.125/150
AO-85 01 Jun 04:33:44 04:38:35 33° 114° (ESE) 04:43:21 145.980
KKS-1 01 Jun 04:42:17 04:45:56 24° 265° (W) 04:49:36 437.445
ITAMSAT 1 01 Jun 04:52:57 04:57:33 32° 294° (WNW) 05:02:09 435.822/435.867
Cosmos 2491 01 Jun 04:54:10 05:02:46 55° 285° (WNW) 05:11:24 435.465 / 435.565
STARS 01 Jun 05:04:09 05:07:53 27° 264° (W) 05:11:37 437.465
Gurwin Techsat 1B 01 Jun 05:05:17 05:07:20 12° 305° (NW) 05:09:24 435.225
AO-7 01 Jun 05:15:19 05:23:44 83° 290° (WNW) 05:32:07 29.400- 29.500
CUBESAT XI-V 01 Jun 05:34:52 05:39:33 80° 257° (WSW) 05:44:18 437.345
MOZHAYETS 4 01 Jun 05:37:48 05:38:21 10° 273° (W) 05:38:55
Cosmos 2504 01 Jun 05:38:07 05:46:05 45° 272° (W) 05:54:19 435.465 / 435.565
STRAND 1 01 Jun 05:42:31 05:45:05 14° 58° (ENE) 05:47:41 437.568
HORYU 2 01 Jun 05:57:09 06:01:38 84° 282° (WNW) 06:06:04 437.375
NOAA 15 01 Jun 05:57:20 06:01:13 20° 92° (E) 06:05:03 137.62
YUBILEINY 01 Jun 05:57:51 05:59:09 10° 290° (WNW) 06:00:27 435.215
SO-50 01 Jun 05:58:16 06:00:00 12° 27° (NNE) 06:01:42 436.795
LilacSat-2 01 Jun 06:04:23 06:05:22 11° 89° (E) 06:06:22 437.200
AO-85 01 Jun 06:13:48 06:19:00 44° 312° (NW) 06:24:03 145.980
